Simultaneous Nadir Overpasses (SNOs) Predictions

Prediction of SNOs between METOP-A and TERRA Satellite Orbit:

Table of predicted SNOs for the next 14.0 days since TLE Epoch: 7/4/2015
Index Date (METOP-A) Time (METOP-A) Lat,Lon (METOP-A) SZA (METOP-A ) Date (TERRA) Time (TERRA) Lat,Lon (TERRA) SZA (TERRA ) Distance(km) Time Diff (sec)
1 07/06/2015 11:56:15 -81.14,-139.88 119.58 07/06/2015 11:57:29 -80.83,-138.97 119.69 38.04 74
2 07/06/2015 12:46:32 81.35, 36.62 61.56 07/06/2015 12:46:33 81.36, 36.78 61.59 2.87 1
3 07/06/2015 13:37:12 -81.35,-155.76 118.41 07/06/2015 13:36:00 -81.35,-155.68 118.43 1.28 72
4 07/09/2015 07:30:11 -81.35, -64.59 118.19 07/09/2015 07:31:24 -81.34, -64.68 118.17 1.40 73
5 07/09/2015 08:20:51 81.35, 102.99 61.85 07/09/2015 08:20:50 81.35, 103.08 61.86 1.40 1
6 07/09/2015 09:11:29 -81.36, -88.55 118.02 07/09/2015 09:10:15 -81.39, -88.59 118.04 3.03 74
7 07/12/2015 03:04:29 -81.35, 1.78 117.85 07/12/2015 03:05:39 -81.35, 1.95 117.79 3.04 70
8 07/12/2015 03:55:08 81.35, 169.72 62.23 07/12/2015 03:55:05 81.36, 169.67 62.23 1.12 3
9 07/14/2015 22:38:48 -81.34, 68.12 117.47 07/14/2015 22:39:56 -81.34, 68.12 117.44 0.39 68
10 07/14/2015 23:29:28 81.35,-124.38 62.56 07/14/2015 23:29:22 81.34,-124.20 62.58 3.10 6
11 07/17/2015 18:13:07 -81.34, 134.42 117.04 07/17/2015 18:14:12 -81.34, 134.59 116.99 2.85 65
